Weather in Okhotskoe

Russia / Republic of Crimea     45°29′09″N   34°51′25″E
temp.,
°C
wind,
m/s
gust,
m/s
humid.,
%
clouds,
%
prec.,
mm/h
press.,
hPa
HPBL,
m
27 february, sat
sat2700:00+7wsw715810 0.0 1022400
03:00+7wsw816840 0.0 1021403
06:00+6wsw715870 0.0 1019401
09:00+8wsw814810 0.0 1019479
12:00+12w811680 0.0 1019702
15:00+14w79640 0.0 10181033
18:00+8n468290 0.0 1017458
21:00+6n588795 2.0 1018637
28 february, sun
sun2800:00+6nnw4689100 3.4 1018563
03:00+5nnw4777100 4.3 1019647
06:00+4nw4783100 0.1 1019528
09:00+4nw5783100 0.3 1020654
12:00+4nw588898 0.3 1020620
15:00+5nnw687086 0.4 1021913
18:00+5nw587392 0.1 1021914
21:00+2nw368696 0.2 1023231
1 march, mon
mon100:00+2wnw359398 0.0 1024190
03:00+1wnw359599 0.1 1024138
06:00+1w249299 0.0 1025124
09:00+2wnw238697 0.0 1026307
12:00+4wnw226485 0.1 1027911
15:00+5n336293 0.3 1027894
18:00+4nne236197 0.1 1027704
21:00+2ene117695 0.1 102922
2 march, tue
tue200:00+1sw127880 0.0 102922
03:000w238553 0.0 103023
06:000nw22860 0.0 103022
09:00+2wnw23770 0.0 1030199
12:00+6w45550 0.0 10301075
15:00+7w575118 0.0 10281275
18:00+6w596343 0.0 1026769
21:00+4wsw6127871 0.0 1025555
3 march, wed
wed300:00+5wsw8148085 0.0 1025543
03:00+4w5109187 0.0 1024306
06:00+2wnw34943 0.0 102471
09:00+4wnw46812 0.0 1025261
12:00+8nnw68560 0.0 10261243
15:00+8nnw67420 0.0 10261302
18:00+6nnw47500 0.0 1027445
21:00+3nw23620 0.0 102842